Simultaneous Nadir Overpasses (SNOs) Predictions

Prediction of SNOs between AURA and NPP Satellite Orbit:

Table of predicted SNOs for the next 14.0 days since TLE Epoch: 11/2/2024
Index Date (AURA) Time (AURA) Lat,Lon (AURA) SZA (AURA ) Date (NPP) Time (NPP) Lat,Lon (NPP) SZA (NPP ) Distance(km) Time Diff (sec)
1 11/03/2024 04:44:48 80.83, 21.61 103.91 11/03/2024 04:43:38 80.83, 21.48 103.97 2.28 70
2 11/03/2024 05:34:08 -80.90,-169.86 76.21 11/03/2024 05:34:19 -80.90,-169.82 76.23 0.81 11
3 11/05/2024 17:37:28 80.89,-170.70 104.55 11/05/2024 17:37:29 80.90,-170.57 104.53 2.43 1
4 11/08/2024 05:40:45 -80.91,-171.31 74.76 11/08/2024 05:40:38 -80.91,-171.13 74.78 3.22 7
5 11/10/2024 17:43:57 80.89,-172.28 105.98 11/10/2024 17:43:48 80.90,-172.25 105.98 0.66 9
6 11/10/2024 18:33:18 -80.93, -4.10 74.09 11/10/2024 18:34:31 -80.93, -4.22 74.12 2.14 73
7 11/13/2024 05:47:06 -80.90,-172.97 73.37 11/13/2024 05:46:57 -80.89,-173.12 73.34 2.84 9
8 11/13/2024 06:36:11 81.26, 0.34 105.89 11/13/2024 06:37:24 81.15, 0.78 105.75 14.25 73



Historial Predications of SNOs between AURA and NPP
